GFSGL_500_spd_195.txt.gz
Wind_Speed
47 53 41 38 36 29 26 34 36 41 42 57 43 39 37 39 39 35 37 37 24 32 31 33 35 38 40 39 39 38 41 43 46 47 49 49 52 54 53 54 54 56 57
47 39 36 26 22 27 35 33 37 46 42 40 49 39 40 44 37 40 40 28 27 30 30 32 36 37 37 38 38 38 41 43 46 47 48 51 52 53 55 57 58 59 58
42 36 32 31 28 29 34 45 42 51 50 44 50 41 46 36 37 42 49 21 27 28 30 32 34 34 36 36 36 39 41 45 43 45 48 49 52 56 59 61 63 64 61
41 36 32 32 38 37 33 34 38 47 54 50 47 52 40 34 40 44 38 20 25 28 30 31 32 33 35 33 36 38 41 41 44 47 49 53 57 60 61 64 67 68 64
33 32 34 39 42 44 37 28 26 33 43 44 48 44 37 40 36 36 20 16 25 28 29 29 31 31 30 33 35 39 37 42 46 48 52 56 59 63 64 67 71 70 65
44 40 38 44 47 45 45 42 36 46 48 48 46 40 36 40 39 25 10 22 23 29 26 28 27 27 29 33 37 35 39 44 48 52 54 58 64 70 73 73 74 70 54
42 42 40 43 41 37 41 25 53 57 58 48 42 32 37 36 10 12 14 21 24 24 25 24 25 26 31 34 33 37 42 48 51 53 60 66 71 73 76 74 63 50 42
38 33 33 38 42 39 40 33 34 44 40 45 33 37 31 9 8 12 16 20 22 22 21 21 25 29 31 30 34 39 45 49 55 60 65 70 74 75 67 51 38 34 32
39 38 41 44 42 40 47 43 21 30 44 34 39 35 12 12 10 14 17 17 19 17 18 22 26 28 28 33 37 41 47 52 57 62 67 73 70 60 47 34 34 33 29
45 53 50 49 47 44 44 44 23 20 37 28 25 17 11 11 13 15 14 15 14 16 20 23 24 26 31 35 39 44 50 54 58 65 73 66 55 46 35 33 38 35 30
40 42 48 41 38 38 32 38 36 35 28 20 17 13 8 13 12 12 12 13 14 17 20 22 23 29 31 36 41 45 50 54 61 66 69 56 43 34 31 37 36 33 33
38 41 34 29 34 37 30 28 27 28 26 17 7 10 12 10 10 10 10 13 15 19 21 22 26 29 34 39 42 47 51 56 63 62 57 45 35 28 34 33 34 36 34
32 40 40 40 46 39 31 28 24 18 11 10 12 10 8 9 8 9 11 13 17 17 19 23 27 31 36 40 44 48 53 58 61 54 44 39 25 30 31 29 34 35 31
29 42 46 39 34 33 26 25 18 14 13 12 10 10 8 7 7 10 12 15 16 18 21 25 29 34 37 42 47 51 54 56 57 47 38 32 25 26 30 29 34 33 28
31 33 33 31 30 30 23 17 15 11 12 12 10 7 5 5 9 12 13 14 15 18 23 28 31 35 39 45 48 50 53 56 51 39 34 27 26 25 28 28 33 31 25
36 41 38 34 28 22 20 16 14 13 11 9 8 7 6 9 11 13 13 14 16 21 26 29 33 36 39 43 46 48 51 51 43 34 29 21 22 25 25 27 29 31 27
35 37 31 28 24 19 16 14 14 12 10 9 8 8 9 11 11 13 15 16 20 24 27 31 34 36 38 42 45 47 50 47 37 31 27 18 19 19 27 23 26 29 29
32 28 20 20 19 16 14 13 12 11 10 9 9 10 10 10 13 15 15 17 22 26 29 32 36 37 39 43 46 50 52 42 32 28 24 18 16 16 21 23 22 25 29
23 25 22 19 16 14 14 11 10 10 10 12 10 10 11 12 14 15 16 20 24 27 31 33 35 38 41 45 49 54 52 35 26 24 21 20 13 13 18 23 20 23 27
22 21 18 16 13 13 13 11 10 9 12 12 11 10 11 13 15 16 19 22 25 28 32 32 36 40 44 48 53 53 44 29 22 21 19 19 10 10 13 19 20 21 25
21 21 18 15 14 13 11 12 13 15 14 10 10 10 12 15 18 20 21 26 27 30 33 35 39 43 47 50 53 46 35 25 20 18 18 17 11 8 9 14 19 19 25
24 21 18 14 14 13 14 14 14 14 11 10 11 12 13 16 19 19 23 27 29 31 34 37 41 44 48 51 46 37 28 24 20 17 18 16 16 7 6 11 15 19 22
28 26 21 17 16 16 15 14 15 13 10 10 12 13 15 16 18 22 24 26 30 32 35 39 42 45 49 46 37 29 25 22 19 16 16 14 18 11 5 7 12 18 19
29 30 22 20 18 16 17 17 15 12 11 12 12 15 15 16 20 23 25 28 31 33 36 40 43 47 46 38 31 25 22 21 17 14 14 14 15 14 6 3 6 12 16
37 26 26 22 20 17 17 15 13 11 12 11 14 15 17 19 22 24 26 28 31 35 37 40 44 45 40 30 26 22 21 19 16 13 11 12 10 14 8 2 2 7 13
25 29 30 26 24 21 18 15 13 12 13 13 14 17 18 21 24 26 27 29 34 36 38 42 43 39 30 26 24 22 20 18 16 14 12 11 10 11 11 4 2 3 9

GFSGL_500_spd_198.txt.gz
Wind_Speed
71 68 67 60 65 65 57 67 56 55 60 56 52 50 55 54 56 56 59 47 43 39 38 36 31 30 37 38 39 39 39 39 40 41 42 48 53 58 63 69 73 73 74
65 76 75 73 61 51 50 50 56 64 52 45 41 49 49 40 49 55 64 43 36 39 42 41 27 31 36 36 37 37 37 38 40 41 47 51 57 64 68 75 80 81 81
71 70 63 57 49 44 35 42 51 48 41 30 36 40 47 39 46 47 45 31 29 32 41 25 27 33 32 35 35 35 37 40 38 44 50 56 61 66 73 82 86 85 86
56 55 53 41 45 37 38 41 31 38 37 40 40 44 48 40 39 38 36 25 26 38 42 21 31 29 33 34 33 35 38 38 42 47 53 58 65 71 82 87 85 81 64
58 42 45 47 46 38 35 31 32 31 40 47 48 47 42 41 45 34 25 28 30 29 18 27 29 30 30 30 32 35 37 39 44 50 55 61 68 78 87 82 72 54 47
46 40 40 41 34 32 32 34 36 39 25 19 43 41 46 51 49 53 41 32 36 20 21 25 29 27 27 28 32 33 36 41 45 52 57 64 73 84 82 66 49 39 38
49 43 45 43 38 37 39 41 39 44 48 32 43 42 34 39 39 41 36 35 34 17 24 27 30 23 25 27 28 33 38 41 46 52 58 66 78 81 65 44 41 41 40
33 34 34 33 34 35 32 33 34 40 38 34 34 35 34 38 40 32 32 16 15 19 28 27 21 23 25 25 30 34 38 43 48 56 61 67 79 69 44 37 38 39 41
39 37 39 37 36 34 32 19 20 30 29 23 30 33 37 36 29 12 10 11 17 24 25 22 21 24 23 27 30 34 40 45 52 56 62 70 73 55 34 38 37 38 35
35 38 42 37 36 32 21 21 23 31 33 24 26 39 40 33 12 19 10 15 24 20 20 20 21 20 24 28 33 38 43 48 53 59 64 69 61 38 35 37 36 37 31
29 31 31 31 30 27 30 31 27 28 32 41 30 35 37 30 21 7 13 22 19 19 19 20 19 21 26 30 34 39 44 49 53 57 67 62 48 30 35 38 37 34 29
28 30 31 32 32 34 31 23 21 32 31 33 27 28 19 10 7 17 18 16 16 16 19 17 19 24 27 32 37 42 47 51 55 60 67 54 35 32 35 36 36 34 29
31 30 28 24 28 25 24 34 32 30 34 41 25 17 10 12 17 14 14 14 15 17 16 16 21 26 30 35 40 44 47 52 57 61 59 46 28 29 32 32 36 35 28
34 32 28 27 30 26 36 25 28 30 30 26 15 10 15 15 12 12 13 14 16 15 14 18 23 29 32 37 41 46 51 53 58 59 50 39 25 25 29 30 30 34 32
36 28 30 28 27 38 32 30 31 28 20 13 15 16 14 12 10 11 14 12 14 15 17 22 27 30 34 40 43 48 51 53 58 53 43 34 24 22 26 27 28 32 32
31 37 38 43 38 32 37 32 23 16 18 20 18 14 11 9 10 11 12 12 15 15 19 24 29 31 37 42 45 49 50 55 55 47 37 28 21 19 22 26 25 29 31
36 34 38 32 38 36 26 20 21 21 18 16 13 9 9 9 10 11 12 14 15 17 22 26 30 34 39 42 46 48 52 57 52 43 31 24 19 15 18 25 23 28 32
31 34 33 30 19 23 25 22 21 18 17 13 11 10 9 9 8 11 13 14 16 20 24 29 31 36 39 44 47 50 55 57 47 37 25 20 19 13 14 21 22 25 29
28 25 30 28 26 19 19 18 17 16 14 13 11 9 7 8 10 13 14 16 20 22 27 30 33 37 39 44 47 51 55 51 39 31 20 17 19 12 11 16 22 24 27
24 22 26 18 17 18 17 17 16 15 14 11 8 8 8 9 11 14 16 19 20 23 27 30 34 37 41 45 48 52 50 40 35 23 17 15 16 10 8 15 21 21 24
24 20 17 19 18 18 18 14 14 12 10 10 9 8 10 11 13 15 19 20 22 24 27 31 35 39 42 46 49 49 41 33 27 17 16 13 15 9 6 12 18 20 23
18 21 18 19 17 15 14 13 14 14 12 11 9 10 12 13 15 17 18 21 22 25 29 34 39 41 43 46 46 42 34 28 23 16 16 13 15 8 4 9 15 18 21
14 21 22 19 18 16 15 15 15 13 12 12 11 12 12 13 15 16 19 21 24 28 32 37 40 42 43 44 40 34 28 24 20 16 14 13 13 8 4 6 11 16 18
22 27 24 21 19 18 17 16 15 14 14 14 12 12 13 14 16 18 20 22 26 30 34 38 39 40 42 38 34 29 25 22 18 15 13 12 10 10 3 2 6 12 15
25 31 27 26 23 22 19 17 16 15 15 14 13 14 15 14 16 18 22 25 29 33 37 38 39 40 37 32 29 25 23 21 18 15 11 9 8 10 5 1 3 6 11
25 29 28 32 28 24 20 19 16 16 17 15 13 14 14 15 17 19 22 27 32 36 38 37 38 35 30 27 25 23 22 20 17 15 12 8 7 7 8 2 3 4 7

GFSGL_500_spd_201.txt.gz
Wind_Speed
76 72 71 69 67 64 59 59 56 53 51 49 54 50 51 48 50 52 62 65 61 59 58 63 56 39 40 48 34 35 43 46 45 44 46 44 51 58 64 69 76 86 95
69 67 68 67 69 63 64 58 56 52 54 61 60 53 53 55 57 62 55 53 52 55 59 50 37 31 43 23 37 37 44 46 43 42 41 48 53 59 66 74 82 93 88
68 58 66 63 59 66 63 62 56 53 55 54 56 61 59 57 53 48 40 47 46 49 45 29 24 33 33 29 33 37 41 40 40 40 46 50 56 62 69 78 89 89 56
72 50 68 65 61 64 63 57 57 54 53 57 52 49 53 53 47 48 48 47 44 38 28 31 30 29 24 28 36 39 36 38 38 44 47 52 58 65 73 81 83 57 45
71 48 69 76 33 46 51 51 62 53 48 47 43 46 46 41 48 39 40 43 32 26 28 26 17 18 25 28 36 35 36 35 40 44 49 56 60 67 75 83 71 43 46
58 59 34 67 38 51 55 47 53 50 43 35 30 28 33 47 50 43 38 31 32 29 30 18 14 21 24 31 32 33 32 38 41 46 50 57 61 69 79 79 47 42 39
48 36 31 30 34 33 31 36 37 38 31 33 30 34 40 36 32 39 32 40 36 32 33 15 13 23 26 27 30 29 33 39 42 47 52 57 62 70 78 65 43 45 43
46 36 37 33 32 33 38 35 20 22 31 32 36 37 34 35 33 33 35 37 38 26 7 12 22 22 24 28 27 30 34 39 44 50 55 60 65 72 76 48 40 42 42
50 44 49 33 38 32 38 26 23 22 26 30 32 29 24 23 24 30 36 34 12 9 10 20 21 22 25 25 28 32 35 41 46 51 55 59 66 73 69 38 43 40 39
51 48 45 49 42 24 24 17 18 22 23 23 29 18 17 24 24 34 35 27 10 7 18 19 20 23 22 23 28 32 38 43 48 55 58 61 65 70 56 36 41 40 40
42 30 38 25 27 19 20 20 22 22 24 20 22 21 25 29 30 26 28 15 8 14 16 18 21 21 21 25 30 34 39 44 49 55 56 64 64 61 41 35 41 38 38
28 30 29 20 20 20 20 22 27 21 22 17 18 25 30 27 28 16 8 8 12 15 16 19 20 18 21 29 33 37 43 47 51 55 57 63 60 50 32 33 38 37 39
27 22 21 15 21 22 23 27 29 26 25 26 27 28 29 22 15 10 6 11 13 15 16 17 18 20 25 31 34 39 44 49 53 56 57 58 53 37 27 31 38 39 40
19 22 25 20 27 29 31 25 24 26 28 29 28 27 20 18 8 6 10 11 14 15 16 17 18 22 28 33 36 41 46 49 52 56 61 56 46 30 23 26 32 31 37
23 24 23 23 26 24 23 23 28 28 19 24 27 22 16 8 8 10 11 11 13 15 17 17 20 25 30 33 37 42 47 51 53 58 57 50 40 27 20 24 30 30 33
26 27 29 27 25 24 21 27 40 34 27 23 22 15 11 11 10 10 10 11 12 15 16 18 22 27 31 34 39 44 48 50 54 59 51 45 35 24 21 22 29 29 30
20 25 26 30 33 36 38 40 33 28 29 25 17 15 13 10 10 9 10 11 13 14 16 20 24 28 31 37 41 46 49 51 57 53 45 38 30 22 19 20 28 28 29
34 32 29 27 34 37 36 34 33 29 23 19 19 15 12 10 9 8 10 10 12 15 19 22 26 29 34 39 43 46 49 53 52 45 42 33 25 22 18 18 25 26 25
32 30 35 33 30 25 18 24 25 20 18 18 15 13 12 8 8 9 10 10 13 17 20 23 26 32 38 41 44 46 50 53 47 40 35 27 21 21 15 17 22 23 23
30 30 25 25 20 18 24 21 18 18 18 16 14 11 8 9 9 9 10 12 15 17 20 23 28 34 39 41 43 47 52 50 44 36 28 23 18 19 12 14 19 20 20
25 20 20 25 25 24 19 18 16 16 16 13 10 9 10 10 10 10 12 14 15 19 22 25 30 36 40 42 44 48 50 48 41 33 23 20 17 18 10 11 16 17 19
21 26 30 22 18 16 16 14 14 14 13 11 11 11 10 9 10 12 12 14 18 20 22 26 33 39 42 43 45 46 47 43 36 29 22 18 17 17 8 7 13 16 17
24 25 22 18 15 13 15 15 14 13 13 12 11 9 8 10 12 13 14 16 18 21 24 31 37 40 40 42 43 45 42 36 31 26 21 16 16 16 8 5 9 13 15
20 15 14 20 16 17 17 14 13 13 13 11 9 9 10 11 12 14 15 16 19 23 29 35 38 38 39 40 41 41 36 33 29 25 20 15 15 13 8 4 5 10 13
17 19 16 17 20 18 14 15 14 13 12 11 11 10 11 11 13 15 15 17 21 27 33 35 35 36 37 37 37 35 32 31 27 22 18 14 12 10 8 3 1 6 11
21 23 25 24 22 19 16 15 16 15 14 13 12 11 11 12 13 14 16 19 26 32 34 33 33 34 34 33 32 30 30 28 24 19 16 13 10 7 8 4 4 3 7

GFSGL_500_spd_204.txt.gz
Wind_Speed
49 68 77 72 68 66 60 64 57 59 50 45 45 45 44 47 53 50 45 49 50 54 58 59 62 54 47 42 47 39 40 34 37 43 43 44 46 50 56 62 68 76 81
43 64 80 41 70 67 62 50 63 53 49 46 47 46 47 47 44 38 47 51 51 58 59 62 56 48 45 33 33 36 33 30 38 38 39 43 48 53 59 65 73 77 84
47 67 76 41 64 66 66 56 54 51 48 46 50 50 48 46 45 50 54 54 54 55 60 61 53 46 29 35 41 33 26 32 33 37 39 43 49 55 62 68 73 79 85
33 68 70 50 68 58 62 53 48 51 48 50 49 48 44 47 47 51 47 48 49 48 46 49 43 30 35 34 20 23 29 31 33 36 41 45 51 58 64 68 73 81 79
56 69 62 61 68 65 53 66 64 58 50 53 48 45 46 46 41 48 44 39 45 43 41 35 30 32 40 17 20 25 27 31 32 37 41 47 54 60 66 71 75 79 59
51 63 42 37 61 67 63 54 43 47 54 45 44 47 39 35 38 29 28 30 31 29 37 34 41 35 13 20 21 24 28 28 32 38 43 51 58 64 68 72 75 78 55
39 50 69 31 61 58 48 40 32 42 47 52 45 43 39 40 35 31 32 34 24 26 34 32 35 16 19 20 22 26 27 31 36 41 47 54 60 62 69 73 75 63 44
32 46 61 24 38 41 49 29 31 35 33 39 38 37 32 24 32 35 34 29 27 25 31 34 14 18 21 21 24 23 27 31 36 43 50 56 60 65 70 76 71 48 46
31 35 57 41 33 44 41 25 23 29 16 15 19 12 15 24 32 35 29 26 28 30 32 13 14 19 20 23 23 24 30 34 40 46 53 56 60 65 71 72 61 37 41
29 39 33 22 26 40 38 29 30 17 11 9 12 18 20 21 23 22 21 25 25 21 14 18 16 17 22 22 21 27 33 36 43 50 54 59 64 70 74 69 50 33 38
38 54 30 55 18 21 28 33 31 22 16 11 14 13 16 18 20 23 22 22 21 15 11 12 16 21 23 20 23 30 33 38 44 50 55 60 66 70 70 54 35 34 38
25 25 49 32 25 25 29 26 24 16 17 12 13 17 13 14 20 22 23 12 8 8 11 14 18 21 17 21 26 32 35 41 46 53 55 62 65 65 58 38 30 37 38
26 20 27 26 25 21 22 9 12 14 16 16 14 18 21 24 22 14 8 7 6 9 11 15 18 18 20 23 30 33 37 43 48 52 57 62 61 56 45 28 29 39 40
31 23 24 26 29 18 12 14 16 16 14 19 16 18 22 20 16 9 8 5 8 9 12 15 16 18 21 27 30 34 39 45 49 53 58 60 57 46 29 22 26 33 35
4 16 14 14 10 14 16 19 18 16 13 19 24 25 19 15 12 10 5 8 8 11 12 14 16 19 22 28 31 36 42 45 49 52 58 55 48 35 21 22 25 31 32
17 19 19 17 18 18 20 16 13 20 24 20 18 17 12 17 11 8 7 8 9 10 13 14 17 20 24 27 33 39 42 45 48 53 56 49 40 25 21 22 27 30 32
19 20 19 19 19 17 16 17 18 18 24 32 26 19 21 14 9 8 7 8 9 11 12 15 19 21 24 29 35 40 43 44 49 54 51 44 32 21 19 21 27 29 29
16 12 10 12 10 15 18 22 19 25 27 27 24 22 16 11 8 5 6 8 10 11 14 16 19 21 25 33 39 43 42 46 50 51 46 38 27 19 18 19 24 26 25
13 10 27 27 28 27 22 24 26 29 29 27 23 17 13 10 5 5 7 8 9 12 14 17 19 22 28 37 42 42 43 47 50 47 40 32 24 20 17 17 23 24 24
12 18 22 27 30 22 22 23 24 27 27 21 15 14 11 6 6 7 8 9 10 12 15 17 20 25 33 39 42 41 44 48 47 42 36 29 21 18 16 15 20 21 20
27 31 23 23 23 23 17 22 26 25 21 17 15 11 7 7 7 8 8 9 11 15 15 19 24 31 36 38 38 42 45 47 46 41 33 26 19 16 14 13 17 19 18
27 24 22 25 17 18 20 24 22 16 16 15 11 10 8 7 7 7 8 9 12 14 17 22 29 34 36 36 39 42 46 46 43 37 30 22 17 14 14 11 14 17 16
23 19 17 22 23 23 21 19 18 16 14 12 10 9 7 6 7 8 8 10 12 16 20 26 31 33 34 36 39 42 43 41 37 33 27 21 15 14 16 10 10 15 15
26 24 23 19 17 14 13 12 10 11 10 11 9 9 8 8 8 8 9 12 15 18 22 28 31 32 33 36 39 41 38 35 33 30 24 20 14 14 16 11 7 10 12
28 28 21 19 14 11 7 10 8 9 12 13 13 12 9 8 8 8 11 13 15 20 25 28 29 31 33 35 37 35 31 33 31 27 22 18 13 14 14 12 6 6 9
15 19 17 17 17 13 8 10 10 11 14 14 14 12 9 9 8 10 12 14 19 23 25 26 27 29 32 34 33 30 27 30 28 25 22 17 14 13 13 13 5 2 8

GFSGL_500_spd_207.txt.gz
Wind_Speed
45 50 58 58 58 70 72 68 63 61 64 56 52 45 38 39 31 37 34 35 40 46 38 42 46 53 54 49 53 52 47 46 46 40 34 39 40 44 49 56 62 67 74
48 53 55 53 54 67 70 66 65 61 64 62 53 45 42 41 40 39 35 35 39 37 37 41 43 45 46 48 51 48 36 42 29 33 36 37 41 46 52 60 66 72 77
25 35 52 53 52 65 67 67 64 59 54 56 51 47 41 41 42 38 36 37 37 38 40 44 43 41 40 41 35 35 40 25 29 32 34 37 43 49 58 64 69 74 79
28 36 43 45 52 66 65 66 59 52 41 38 43 47 44 41 40 39 36 31 36 36 35 33 32 33 34 34 36 37 22 24 30 30 34 39 46 53 59 65 72 75 77
36 34 41 45 59 69 64 55 60 55 35 44 49 41 40 41 42 36 34 32 34 25 30 32 26 28 32 31 32 18 22 26 28 31 36 42 49 56 62 66 70 76 78
28 27 33 44 60 65 70 52 61 59 46 45 47 38 38 41 37 32 32 27 34 30 35 28 25 29 32 30 18 19 24 26 27 33 38 45 51 58 64 68 74 75 71
11 24 28 38 55 48 57 47 61 62 32 28 29 31 32 36 35 35 37 35 33 32 39 28 25 32 28 16 18 22 24 25 30 36 42 47 53 59 64 71 75 76 52
17 21 26 41 63 48 40 52 58 33 36 44 37 33 35 35 31 29 31 34 35 35 34 29 29 23 11 15 20 22 22 27 33 39 43 51 57 61 67 71 74 60 40
10 14 22 40 59 24 26 36 25 31 31 32 25 29 33 34 31 33 21 28 30 28 24 25 20 14 13 16 21 21 23 29 36 41 46 53 57 61 66 70 68 46 34
8 13 31 40 41 35 26 33 44 32 32 33 39 40 31 22 18 23 23 24 23 21 19 15 12 10 15 18 20 22 27 33 37 42 50 54 59 64 66 70 63 37 30
21 23 27 44 33 33 24 30 39 30 25 13 10 8 12 11 17 18 20 17 18 19 14 10 9 14 17 18 19 24 29 34 39 45 49 54 62 65 67 64 52 28 32
21 17 26 22 32 30 20 35 21 21 16 15 11 14 12 13 12 11 13 15 9 6 4 7 11 15 17 17 20 26 31 35 41 46 50 56 62 62 64 54 37 29 33
25 29 28 25 30 23 6 9 9 24 23 19 17 13 14 15 13 11 11 6 3 2 6 10 13 15 16 18 23 27 31 38 43 46 51 57 59 62 57 40 28 31 33
9 26 23 19 33 16 12 11 19 24 20 22 17 14 13 17 14 8 5 5 4 5 8 11 12 14 16 20 23 28 34 40 43 47 52 59 59 57 46 25 25 31 30
28 28 24 20 21 16 15 16 15 15 15 14 14 11 10 13 11 7 9 5 5 6 8 11 13 16 18 21 24 30 38 42 44 49 54 57 55 48 33 20 24 28 27
24 20 18 26 29 29 25 20 18 17 14 6 10 16 14 8 10 11 7 6 5 7 9 11 14 17 19 22 26 33 39 42 45 50 54 54 49 36 25 19 23 25 23
16 20 17 15 14 14 16 16 6 11 17 17 14 17 15 14 14 10 6 7 5 5 9 13 15 17 21 24 30 36 40 41 47 50 53 51 42 28 20 17 21 23 23
19 18 14 12 12 12 11 12 13 13 16 12 11 17 20 19 13 9 4 6 4 7 10 13 16 20 23 27 33 37 38 42 47 50 51 46 34 25 18 15 20 21 22
14 17 9 5 9 9 16 12 12 11 8 10 15 24 20 13 10 7 5 3 5 9 11 14 18 21 25 30 34 35 38 44 48 50 47 39 29 21 16 13 19 22 21
20 20 15 14 17 23 28 12 8 11 20 25 22 18 14 11 8 5 3 4 7 10 13 16 18 22 27 30 31 35 41 45 48 46 42 35 25 17 14 12 18 19 18
14 18 22 20 25 22 14 11 15 19 21 23 24 18 12 9 7 1 4 6 9 11 14 17 20 24 28 29 32 36 42 45 45 43 38 33 22 15 13 11 16 19 17
21 24 28 28 21 20 17 16 17 21 24 21 15 11 11 8 2 2 5 8 9 11 14 17 22 25 26 29 33 38 42 45 43 40 36 28 18 14 13 10 14 17 16
30 25 23 21 21 17 13 15 20 24 18 14 12 12 9 5 1 3 7 9 10 12 15 18 22 24 25 29 34 38 41 41 38 36 34 25 16 14 15 11 12 16 16
20 17 19 21 19 17 19 22 23 19 16 13 12 11 8 5 3 4 7 9 11 13 17 21 23 24 26 29 34 38 38 36 33 32 29 22 15 14 16 12 10 14 15
20 15 16 15 13 14 11 11 14 15 15 12 11 9 7 6 5 6 8 10 12 15 18 20 22 23 26 30 33 34 34 31 30 29 26 19 13 14 16 13 10 12 12
14 19 19 21 17 13 13 13 10 7 7 11 11 9 9 8 7 7 9 11 12 15 18 20 21 24 27 30 32 34 31 28 27 26 23 18 14 15 16 13 9 9 12

GFSGL_500_spd_210.txt.gz
Wind_Speed
40 42 45 51 58 59 56 57 54 62 61 57 53 40 32 40 36 40 37 34 31 30 27 30 32 35 29 42 36 34 36 37 39 40 33 31 34 37 43 49 54 60 66
29 40 43 47 60 63 56 58 54 63 62 58 54 44 45 42 42 32 31 27 30 28 28 30 32 32 35 38 34 31 34 38 40 28 29 32 34 39 45 53 58 64 68
21 30 47 56 56 60 57 58 54 63 64 61 62 47 44 41 46 37 37 34 32 30 27 27 28 25 31 33 35 36 36 37 25 26 30 32 36 43 50 57 62 67 71
14 22 39 52 52 57 57 58 58 66 70 62 60 58 54 62 51 38 36 34 35 32 28 24 26 31 33 34 32 35 36 24 25 28 30 34 40 47 53 59 65 68 74
15 17 29 39 49 52 56 57 54 62 63 58 54 61 59 58 40 40 41 35 29 28 26 27 29 36 36 33 33 32 22 24 27 27 31 38 44 49 54 57 63 71 75
19 22 23 34 51 46 50 53 55 56 61 31 55 64 56 48 47 38 17 22 29 28 25 29 33 39 35 32 30 22 20 25 26 27 33 40 45 51 56 60 65 69 71
10 25 23 28 35 43 46 46 52 49 52 43 43 46 51 62 42 27 33 33 31 28 26 28 31 32 29 28 21 19 23 26 26 31 36 40 45 51 56 64 69 71 70
18 25 28 26 31 38 45 45 48 42 46 54 43 44 38 32 25 26 24 23 21 22 23 29 33 27 24 22 19 20 24 25 29 34 38 42 48 53 58 64 68 69 60
12 17 15 20 29 40 50 54 37 33 30 37 38 28 31 26 35 26 24 25 21 22 24 25 24 22 18 17 17 22 23 26 30 35 39 45 49 53 60 66 68 63 36
25 16 9 15 26 31 38 50 42 26 31 36 17 24 29 40 33 23 19 22 22 21 23 22 21 18 13 16 19 22 24 28 33 37 42 46 51 57 62 67 63 49 31
8 11 18 16 27 28 30 30 47 35 28 33 33 27 27 27 16 16 18 21 17 20 21 18 14 10 13 17 20 22 25 29 33 39 44 48 55 59 63 64 56 35 32
6 11 19 12 42 36 31 26 32 31 29 29 33 22 13 12 12 13 10 10 12 10 10 8 7 10 15 18 20 22 26 30 36 41 46 52 56 59 63 57 43 29 29
14 30 25 31 25 24 9 30 36 18 22 26 17 17 13 9 12 11 8 7 9 7 6 5 9 12 15 17 20 23 26 32 39 43 48 53 56 60 58 48 32 26 27
12 32 32 15 18 17 24 27 32 28 23 22 20 18 16 13 10 8 9 8 6 5 4 6 10 12 15 19 21 24 29 35 40 44 49 54 56 58 49 36 22 26 24
26 29 29 28 21 25 25 19 14 25 23 25 17 9 9 10 6 8 6 7 5 3 5 8 11 13 16 20 23 26 31 37 41 46 50 54 57 52 38 23 20 25 24
28 28 27 33 27 22 23 22 22 19 16 13 13 12 8 3 3 6 7 7 5 4 7 9 10 14 17 20 24 29 34 38 42 45 51 53 54 46 30 17 19 23 23
29 22 22 31 20 28 21 22 22 15 14 11 12 9 3 4 8 8 9 6 4 5 7 9 12 15 17 21 26 30 34 39 42 48 49 53 49 38 26 17 20 21 20
21 22 22 18 20 23 21 19 14 14 13 12 10 8 7 8 12 14 8 5 4 7 9 10 13 15 19 23 27 31 36 39 42 49 50 49 43 33 23 17 20 20 15
19 23 21 19 19 19 18 18 14 10 10 12 10 9 9 12 14 10 6 2 6 7 8 10 13 17 21 24 28 33 35 41 44 48 47 45 37 28 21 15 19 19 13
20 20 19 18 18 18 19 16 8 11 9 11 11 11 13 13 12 8 5 7 5 6 8 11 15 17 21 25 30 31 36 42 45 47 45 42 32 23 19 15 18 19 14
26 16 15 16 14 14 14 10 5 3 6 10 12 16 16 14 11 6 5 4 3 5 8 12 14 18 24 26 27 33 38 42 44 46 42 38 27 19 18 13 17 18 13
20 24 27 22 14 14 16 14 8 8 13 19 21 20 18 10 8 6 4 3 4 6 9 12 15 20 23 25 29 33 38 41 43 43 39 34 23 18 16 12 17 18 14
27 26 23 19 20 18 14 11 13 15 19 21 22 16 11 10 8 5 3 2 5 8 11 14 16 20 22 26 30 33 37 40 41 39 35 28 20 17 16 13 16 18 16
24 25 23 20 17 18 16 16 18 23 23 18 13 13 12 8 7 5 1 4 7 10 12 13 17 21 24 27 30 34 37 38 38 34 31 24 18 16 13 12 16 16 17
21 19 17 17 16 15 13 16 23 24 21 17 13 10 8 9 6 3 3 6 9 10 11 16 19 21 24 27 30 33 36 36 34 29 28 20 15 15 13 11 14 15 16
16 15 12 11 13 15 16 19 20 19 17 15 13 11 10 9 6 3 5 9 9 10 13 17 19 22 24 27 30 33 34 32 29 25 25 18 14 13 14 11 11 15 15